Location: Unspecified
(0.0000°N, 0.0000°E)
Time: 20:58:41
(UTC+00:00)

Kosmos-2004 - Visible Passes

Search period start: 27 May 2024 00:00
Search period end: 06 June 2024 00:00
Orbit: 968 x 1013 km, 83.0° (Epoch: 26 May)

Date Brightness Start Highest point End Pass type
(mag) Time Alt. Az. Time Alt. Az. Time Alt. Az.
27 May 7.5 03:39:52 10° NNW 03:42:03 23° NNW 03:42:03 23° NNW visible
28 May 8.5 02:25:16 10° NNE 02:26:04 13° NE 02:26:04 13° NE visible
29 May 8.2 02:54:09 10° N 02:55:05 15° N 02:55:05 15° N visible
